Simultaneous Nadir Overpasses (SNOs) Predictions

Prediction of SNOs between AQUA and GOES-15 Satellite Orbit:

Table of predicted SNOs for the next 14.0 days since TLE Epoch: 7/6/2012
Index Date Time (AQUA) AQUA Lat,Lon GOES-15 Lat,Lon Distance(km) Time Diff (sec)
1 07/06/2012 22:35:18 0.30,-134.99 0.26,-135.32 36.88 80
2 07/08/2012 22:23:08 0.97,-132.05 0.25,-135.35 375.68 80
3 07/09/2012 10:44:24 0.10,-137.21 -0.27,-135.36 209.64 80
4 07/11/2012 10:32:13 -0.53,-134.26 -0.27,-135.39 128.69 80
5 07/11/2012 22:53:37 -0.59,-139.45 0.29,-135.38 462.71 80
6 07/13/2012 10:20:02 -1.17,-131.31 -0.28,-135.40 466.37 80
7 07/13/2012 22:41:26 0.06,-136.50 0.29,-135.40 125.10 80
8 07/15/2012 22:29:15 0.72,-133.55 0.30,-135.41 211.87 80
9 07/16/2012 10:50:30 0.41,-138.70 -0.31,-135.42 373.46 80
10 07/18/2012 10:38:19 -0.26,-135.76 -0.32,-135.43 37.20 80
11 07/20/2012 10:26:07 -0.89,-132.80 -0.32,-135.42 298.74 80




NCC Satellite Simultaneous Nadir Overpasses (SNOs) Prediction Service
